Weather in Krasnaya Kriusha

Russia / Tambov Oblast     52°47′47″N   41°01′59″E
temp.,
°C
wind,
m/s
gust,
m/s
humid.,
%
clouds,
%
prec.,
mm/h
press.,
hPa
HPBL,
m
3 march, wed
wed300:00−2nw5109693 0.1 1009300
03:00−5nw5119775 0.1 1010253
06:00−3nw6129592 0.1 1011612
09:00−3nnw7128896 0.4 1014801
12:00−4nnw6118934 0.0 1015637
15:00−3nw6108651 0.0 1016773
18:00−5w4109149 0.0 1016237
21:00−2w6129473 0.1 1016548
4 march, thu
thu400:00−2w51290100 0.1 1014472
03:00−2wsw61293100 0.2 1012632
06:00−3wsw71492100 0.0 1010468
09:00−2wsw81592100 0.1 1008514
12:00+1wsw9158486 0.0 1007775
15:00+1wsw8158689 0.0 1005837
18:000wsw7158897 0.0 1003759
21:00+1wsw6139498 0.0 1002585
5 march, fri
fri500:00+1wsw71398100 0.5 1000529
03:00+1wsw71495100 0.8 1000544
06:000wsw71397100 0.2 1000591
09:000w71198100 0.5 1003649
12:00−2n469299 0.1 1006554
15:00−3nnw458899 0.3 1009583
18:00−5n3393100 0.0 101065
21:00−6n2393100 0.0 101267
6 march, sat
sat600:00−8n2393100 0.0 101345
03:00−9n239387 0.0 101326
06:00−10nw239361 0.0 101424
09:00−9nw379530 0.0 1015239
12:00−7nw46900 0.0 1016295
15:00−6nw36870 0.0 1016441
18:00−9nw239226 0.0 101622
21:00−11nw129212 0.0 101721
7 march, sun
sun700:00−11w22930 0.0 101721
03:00−11sw34933 0.0 101761
06:00−10sw511950 0.0 1015227
09:00−7sw8158335 0.0 1012754
12:00−4sw101672100 0.0 10101053
15:00−3sw101872100 0.0 10061190
18:00−3sw101981100 0.1 10031245
21:00−2wsw101884100 0.1 10011033